Observations
| Time | Sensor | AQI | SAQ | Temp °C | Hum % | Pres Pa | CO μg/m³ | H₂S μg/m³ | NO μg/m³ | NO₂ μg/m³ | O₃ μg/m³ | SO₂ μg/m³ | CO₂e PPM | VOC PPM | PM1 μg/m³ | PM2.5 μg/m³ | PM4 μg/m³ | PM10 μg/m³ | TPS µm |
|---|---|---|---|---|---|---|---|---|---|---|---|---|---|---|---|---|---|---|---|
| Wednesday 12 August 2026 | |||||||||||||||||||
| 21:06 | Trim Patrick St | 3 | 27.4 | 46 | 69,230 | 0 | 22.68 | 0.69 | 28.57 | 62.42 | 14.03 | 2.86 | 8.21 | 9.03 | |||||
| 21:05 | Trim Market St | 3 | 27.7 | 45 | 64,301 | 0 | 7.5 | 0.66 | 30.52 | 69.2 | 0 | 2.14 | 4.77 | 5.19 | |||||
| 21:05 | Trim Patrick St | 3 | 27.5 | 46 | 69,234 | 0 | 23.15 | 0.68 | 32.48 | 63.5 | 14.2 | 4.57 | 9.77 | 10.75 | |||||
| 21:04 | Trim Market St | 3 | 27.7 | 44 | 64,469 | 0 | 3.6 | 0.67 | 20.86 | 71.39 | 0 | 2.14 | 4.78 | 5.19 | |||||
| 21:04 | Trim Patrick St | 3 | 27.5 | 46 | 69,208 | 0 | 23.69 | 0.68 | 32.16 | 63.72 | 14.53 | 5.43 | 10.55 | 11.6 | |||||
| 21:03 | Trim Market St | 3 | 27.7 | 44 | 64,525 | 0 | 4.14 | 0.66 | 20.57 | 77.45 | 0 | 2.14 | 4.78 | 5.19 | |||||
| 21:03 | Trim Patrick St | 3 | 27.6 | 44 | 69,202 | 0 | 22.75 | 0.67 | 35.23 | 60.65 | 14.32 | 4.57 | 9.87 | 10.86 | |||||
| 21:02 | Trim Patrick St | 3 | 27.6 | 45 | 69,201 | 0 | 22.7 | 0.67 | 28.8 | 60.48 | 14.56 | 4.57 | 9.85 | 10.84 | |||||
| 21:01 | Trim Patrick St | 3 | 27.7 | 44 | 69,189 | 0 | 21.7 | 0.67 | 28.73 | 66.09 | 14.24 | 3.71 | 9.09 | 10 | |||||
| 21:00 | Trim Market St | 3 | 27.9 | 44 | 64,734 | 0 | 4.07 | 0.71 | 23.51 | 69.5 | 0 | 1.43 | 4.27 | 4.4 | |||||
| 21:00 | Trim Patrick St | 3 | 27.7 | 44 | 69,202 | 0 | 19.3 | 0.67 | 23.54 | 59.56 | 14.01 | 2.86 | 9.09 | 10 | |||||
| 20:59 | Trim Patrick St | 3 | 27.8 | 44 | 69,222 | 0 | 19.16 | 0.65 | 28.82 | 64.3 | 13.48 | 3.71 | 8.32 | 9.15 | |||||
| 20:58 | Trim Patrick St | 3 | 27.8 | 44 | 69,222 | 0 | 19.22 | 0.67 | 24.15 | 59.86 | 13.79 | 3.71 | 10.7 | 11.77 | |||||
| 20:57 | Trim Market St | 3 | 28 | 44 | 64,991 | 0 | 8.4 | 0.69 | 64.13 | 38.94 | 0 | 1.43 | 4.3 | 5.18 | |||||
| 20:57 | Trim Patrick St | 3 | 27.8 | 45 | 69,220 | 0 | 20.55 | 0.68 | 26.5 | 67.06 | 14.09 | 4.57 | 10.61 | 11.67 | |||||
| 20:56 | Trim Patrick St | 3 | 27.9 | 45 | 69,216 | 0 | 18.65 | 0.66 | 21.68 | 66.08 | 13.94 | 3.71 | 8.3 | 9.13 | |||||
| 20:55 | Trim Market St | 3 | 28.1 | 43 | 65,090 | 0 | 2.81 | 0.63 | 19.31 | 74.86 | 0 | 1.43 | 4.31 | 5.17 | |||||
| 20:55 | Trim Patrick St | 3 | 28 | 44 | 69,244 | 0 | 19.37 | 0.66 | 20.46 | 65.04 | 14.15 | 3.71 | 9.86 | 10.85 | |||||
| 20:54 | Trim Patrick St | 3 | 28 | 44 | 69,218 | 0 | 18.67 | 0.66 | 21.58 | 69.98 | 13.87 | 3.71 | 9.09 | 9.99 | |||||
| 20:53 | Trim Patrick St | 3 | 28.1 | 44 | 69,246 | 0 | 18.64 | 0.65 | 21.66 | 73.01 | 14.09 | 4.57 | 12.22 | 13.44 | |||||